View from above orbital plane
|
View from above satellite
|
Ground track
|
The orbit data is extracted from the following two-line orbital elements,
1 45875U 20046C 21061.74907327 0.00002500 00000-0 20850-3 0 08
2 45875 53.9864 8.4262 0014959 166.9310 193.0689 14.98058888 07
Epoch (UTC): | 02 March 2021 17:58:39 |
Eccentricity: | 0.0014959 |
inclination: | 53.9864° |
perigee height: | 562 km |
apogee height: | 583 km |
right ascension of ascending node: | 8.4262° |
argument of perigee: | 166.9310° |
revolutions per day: | 14.98058888 |
mean anomaly at epoch: | 193.0689° |
orbit number at epoch: | 0 |
The dashed part of the orbit path shows where the satellite is in the earth's shadow,
|
|